Regional Weather Roundup
Issued by NWS Sterling, VA

Home | Current Version | Previous Version | Graphics & Text | Print | Product List | Glossary On
Versions: 1 2 3 4 5 6 7 8 9 10 11 12 13 14 15 16 17 18 19 20 21 22 23 24 25 26 27 28 29 30 31 32 33 34 35 36 37 38 39 40 41 42 43 44 45 46 47 48 49 50
836
ASUS41 KLWX 261711
RWRLWX

REGIONAL WEATHER ROUNDUP
NATIONAL WEATHER SERVICE BALTIMORE MD/WASHINGTON DC
100 PM EDT MON JUN 26 2017

Note: "FAIR" indicates few or no clouds below 12,000 feet
with no significant weather and/or obstructions to visibility.
 TC=TEMPERATURE CELSIUS

 * =Non NWS site. Station does not report precipitation (e.g. rain,
    snow, etc.), thunder, or fog.

DCZ001-MDZ009-015-VAZ040>042-051-053>054-261800-
WASHINGTON METRO

CITY           SKY/WX    TMP DP  RH WIND       PRES   REMARKS
WASHINGTON NAT MOSUNNY   81  43  26 MISG      30.08F
DULLES         MOSUNNY   78  44  29 W12       30.08F
ANDREWS AFB    MOSUNNY   79  42  26 W8G16     30.07F
FT BELVOIR     SUNNY     79  43  27 W6        30.07F
QUANTICO       MOSUNNY   83  44  25 VRB6      30.07F
COLLEGE PARK*  MOSUNNY   79  43  27 SW8G16    30.07F
LEESBURG*      MOSUNNY   79  52  38 W9        30.09F
MANASSAS*      MOSUNNY   79  48  33 VRB5      30.09F
GAITHERSBURG*  PTSUNNY   75  48  38 NW6       30.09F

$$

MDZ006>007-011-014-261800-
BALTIMORE METRO

CITY           SKY/WX    TMP DP  RH WIND       PRES   REMARKS
BWI AIRPORT    PTSUNNY   77  44  30 SW5       30.06F
MD SCIENCE CTR   N/A     80  44  27 MISG      30.07F
MARTIN STATE   PTSUNNY   77  46  33 SW6       30.08F
ANNAPOLIS      MOSUNNY   76  47  35 W9G18     30.06F
FORT MEADE*    SUNNY     77  46  33 W12G17    30.09F

$$

MDZ012-015-019>023-261800-
MARYLAND EASTERN SHORE

CITY           SKY/WX    TMP DP  RH WIND       PRES   REMARKS
OCEAN CITY     MOSUNNY   75  58  55 SE6       30.07F
SALISBURY      SUNNY     82  54  37 VRB5      30.06F
BAY BRIDGE AP* MOSUNNY   79  46  31 NW10G20   30.07S
CAMBRIDGE*     SUNNY     79  48  34 N10       30.07F
EASTON*        MOSUNNY   81  45  28 NW14G21   30.11F

$$

MDZ017>025-261800-
SOUTHERN MARYLAND

CITY           SKY/WX    TMP DP  RH WIND       PRES   REMARKS
PATUXENT RIVER MOSUNNY   78  53  41 E7        30.07F
ST INIGOES     SUNNY     79  54  41 SW9       30.07F
LEONARDTOWN*   SUNNY     79  46  31 CALM      30.09F

$$

MDZ003>005-261800-
NORTH CENTRAL MARYLAND

CITY           SKY/WX    TMP DP  RH WIND       PRES   REMARKS
FREDERICK*     MOSUNNY   79  37  22 W10G18    30.10F
HAGERSTOWN APT MOSUNNY   75  45  34 SW7       30.08F
WESTMINSTER*   PTSUNNY   75  46  35 W9        30.08F

$$

MDZ501>502-261800-
WESTERN MARYLAND

CITY           SKY/WX    TMP DP  RH WIND       PRES   REMARKS
OAKLAND*       NOT AVBL
CUMBERLAND*    MOSUNNY   75  45  33 W9        30.11F

$$

VAZ025>031-261800-
SHENANDOAH VALLEY

CITY           SKY/WX    TMP DP  RH WIND       PRES   REMARKS
WINCHESTER*    PTSUNNY   72  43  35 NW5       30.08F
FRONT ROYAL*   PTSUNNY   73  46  38 CALM      30.08F
LURAY*         MOSUNNY   77  48  36 CALM      30.09F
NEW MARKET*    PTSUNNY   77  46  34 S7        30.07F
STAUNTON*      PTSUNNY   73  47  40 SW5       30.12F
WAYNESBORO*    MOSUNNY   73  49  42 SW6       30.12F

$$

WVZ021-048>050-054>055-261800-
EASTERN WEST VIRGINIA PANHANDLE

CITY           SKY/WX    TMP DP  RH WIND       PRES   REMARKS
MARTINSBURG    MOSUNNY   75  43  31 NW8       30.07F
PETERSBURG*    MOSUNNY   76  48  36 W8        30.09F

$$

VAZ036>039-050-261800-
CENTRAL FOOTHILLS

CITY           SKY/WX    TMP DP  RH WIND       PRES   REMARKS
CHARLOTTESVILL MOSUNNY   78  48  34 VRB7      30.09F
CULPEPER*      MOSUNNY   78  52  39 NW7       30.09F
ORANGE*        MOSUNNY   79  50  36 W8        30.09F
GORDONSVILLE*  MOSUNNY   79  50  36 CALM      30.08F
WARRENTON*     PTSUNNY   81  41  23 W7        30.08F

$$

VAZ055>057-261800-
NORTH AND CENTRAL PIEDMONT

CITY           SKY/WX    TMP DP  RH WIND       PRES   REMARKS
FREDERICKSBRG* SUNNY     80  51  36 W7        30.06F
STAFFORD*      SUNNY     80  46  30 W6        30.12F

$$

NCZ024-NYZ072-PAZ021-071-VAZ022-071-261800-
OTHER REGIONAL OBSERVATIONS

CITY           SKY/WX    TMP DP  RH WIND       PRES   REMARKS
NEW YORK CITY  MOSUNNY   78  48  34 VRB5      30.04F
PHILADELPHIA   MOSUNNY   79  43  27 VRB6      30.04F
PITTSBURGH     MOSUNNY   69  47  45 W16       30.06F
ROANOKE        PTSUNNY   75  47  36 NW9       30.15F
RICHMOND       MOSUNNY   80  54  40 CALM      30.08F
RALEIGH        MOSUNNY   82  51  34 VRB5      30.12F

$$

ANZ530>537-261800-
MARINE OBSERVATIONS

STATION/POSITION TIME  TEMP    WIND        PRES
                       AIR SEA DIR/SP/G
                 (UTC) (F)     (DEG/KT/KT) (MB)
THOMAS PT LIGHT  1700   76 78  300/ 10/ 11   N/A
BALT KEY BRIDGE  1648   75     260/ 11/ 13 1017.7F
COVE POINT       1648   76     150/  3/  4 1018.9F
LEWISETTA        1648   76 80   80/  2/  4 1018.5F
SOLOMONS ISLAND  1648   76 78  110/  6/  7   N/A
PINEY POINT      1648          300/  1/  2   N/A

$$





USA.gov is the U.S. government's official web portal to all federal, state and local government web resources and services.